Flag for Canada Weather past 2 weeks in Creston, British Columbia, Canada

Now
50 °F

Cool.


Feels Like: 49 °F
Forecast: 46 / 79 °F
Wind: 3 mph from East

Location: Creston

Current Time: Jul 28, 2015 at 3:54:12 AM

Latest Report: Jul 28, 2015 at 3:00 AM


Visibility: N/A

Pressure: 30.19 "Hg (28.02 "Hg at 617m altitude)

Humidity: 81%

Dew point: 44 °F

Location of CrestonLocation

Historic Weather in Creston — Graph

°F

Creston temperature yesterday

Maximum temperature yesterday: 69 °F (at 2:00 PM)
Minimum temperature yesterday: 51 °F (at 3:00 AM)
Average temperature yesterday: 59 °F

Past Weeks' High & Low Weather Summary

 TemperatureHumidityPressure
High89 °F (Jul 19, 6:00 PM)100% (Jul 26, 2:00 AM)30.17 "Hg (Jul 26, 2:00 AM)
Low51 °F (Jul 28, 2:00 AM)16% (Jul 21, 5:00 PM)29.66 "Hg (Jul 21, 8:00 PM)
Average68 °F52%29.91 "Hg
* Reported Jul 13 2:00 AM — Jul 28 2:00 AM, Creston, Weather by CustomWeather, © 2015

Note: Actual official high and low records may vary slightly from our data, if they occured in-between our weather recording intervals... More about our weather records

Advertising

Creston weather history for previous 24 hours

 ConditionsComfort  
Time TempWeatherWind HumidityBarometerVisibility
2:00 AM
Tue, Jul 28
51 °FCool.5 mph80%30.17 "HgN/A
1:00 AM52 °FCool.7 mph78%30.16 "HgN/A
12:00 AM53 °FCool.8 mph79%30.14 "HgN/A
11:00 PM
Mon, Jul 27
53 °FCool.2 mph77%30.12 "HgN/A
10:00 PM56 °FCool.6 mph73%30.11 "HgN/A
9:00 PM57 °FCool.6 mph68%30.10 "HgN/A
8:00 PM61 °FRefreshingly cool.3 mph58%30.08 "HgN/A
7:00 PM63 °FMild.7 mph56%30.06 "HgN/A
6:00 PM65 °FMild.3 mph61%30.05 "HgN/A
5:00 PM65 °FMild.2 mph56%30.03 "HgN/A
4:00 PM64 °FMild.6 mph61%30.01 "HgN/A
3:00 PM64 °FMild.2 mph56%29.99 "HgN/A
2:00 PM69 °FMild.7 mph48%29.99 "HgN/A
1:00 PM68 °FMild.1 mph47%30.00 "HgN/A
12:00 PM65 °FMild.10 mph51%30.00 "HgN/A
11:00 AM63 °FMild.8 mph60%30.01 "HgN/A
10:00 AM62 °FCool.3 mph69%30.02 "HgN/A
9:00 AM56 °FCool.6 mph78%30.03 "HgN/A
8:00 AM56 °FCool.2 mph78%30.03 "HgN/A
7:00 AM52 °FCool.1 mph85%30.04 "HgN/A
6:00 AM51 °FCool.2 mph83%30.03 "HgN/A
5:00 AM53 °FCool.6 mph83%30.02 "HgN/A
4:00 AM53 °FCool.6 mph81%30.00 "HgN/A
3:00 AM51 °FCool.2 mph89%29.98 "HgN/A
Weather by CustomWeather, © 2015

See weather overviewHow to use our weather pages